"Pseudo-MPEC" for C0AMHE2

Created 2019 Mar 17 15:18:23 UT using Find_Orb

Click here for an explanation of pseudo-MPECs

 
 Astrometry: 
     C0AMHE2  C2019 03 15.36122 12 56 01.46 -15 34 07.8    ~3FC3 19.7 GVNEOCPG96
     C0AMHE2  C2019 03 15.36681 12 56 01.02 -15 33 41.4    ~3FC3 19.6 GVNEOCPG96
     C0AMHE2  C2019 03 15.37241 12 56 00.58 -15 33 15.3    ~3FC3 19.8 GVNEOCPG96
     C0AMHE2  C2019 03 15.37800 12 56 00.16 -15 32 49.7    ~3FC3       VNEOCPG96
     C0AMHE2  C2019 03 15.48007 12 55 52.10 -15 24 52.6    ~3FCI       VNEOCPG96
     C0AMHE2  C2019 03 15.48143 12 55 51.96 -15 24 45.4    ~3FCI 19.8 GVNEOCPG96
     C0AMHE2  C2019 03 15.48184 12 55 51.92 -15 24 43.1    ~3FCI 19.6 GVNEOCPG96
     C0AMHE2 KC2019 03 16+nrTyO/Kb)V],iYD:\WXR[ikbv4GyNAstrometryV*B(^AWGGsPWH21
     C0AMHE2 KC2019 03 16L8s$MI5m76lfGQbOi^-7+ZAb72cLlXR^+WfGZUnrla8mlTB[8)LCH21
     C0AMHE2 KC2019 03 16'[4?@E+g%:\Q,wiSCDv$6Y+4C-txgQZGredacted;2nfR9Ksrf/JH21
     C0AMHE2 KC2019 03 16Vb(5G3TjeAAEh-m/9`Z23v]M6P-@Bc\$R)@e]0QXQP^x/w^DcqD9L01
     C0AMHE2 KC2019 03 165u,9(iYmLCD*tO^2Mnclickce876@EJ^NtM$Zf,IESOBR3'q(T?EL01
     C0AMHE2 KC2019 03 160pHlDvJXbV'b00*bC!Cn)Q4OJEU5m!E1KmXoi(M,9.nIRe;S./7_L01
     C0AMHE2 KC2019 03 166PCUkZ$4+@Umh$1ACNQi?jg_TV4RFPhereHsA\QUy\PTO3:9VthbL01
     C0AMHE2 KC2019 03 16a5maTC0'F3syo#TyBA9[w4#9Rel)f,D!y+/vokn$h;sEIrgjf#BTL01
     C0AMHE2  C2019 03 17.23255 12 53 39.60 -13 00 50.7    ~3H6I 19.5 GVNEOCPI52
     C0AMHE2  C2019 03 17.23816 12 53 39.04 -13 00 22.2    ~3H6I       VNEOCPI52
     C0AMHE2  C2019 03 17.24299 12 53 38.71 -12 59 57.4    ~3H6I       VNEOCPI52
     C0AMHE2  C2019 03 17.28733 12 53 34.74 -12 56 07.7    ~3H7m 19.4 GVNEOCPG96
     C0AMHE2 KC2019 03 17143ggforv4g2*kTy?#kAGWDie%Kq$,`jtsWblSZZul@!q_!t+BBAH36
     C0AMHE2  C2019 03 17.29253 12 53 34.28 -12 55 40.4    ~3H7m 19.4 GVNEOCPG96
     C0AMHE2 KC2019 03 17w:nqgK3YYmmT:1t;]4pW?8S[3?c3c=8`1,2x2E2km%yaks(ar_dmH36
     C0AMHE2  C2019 03 17.29770 12 53 33.84 -12 55 14.1    ~3H7m 19.9 GVNEOCPG96
     C0AMHE2 KC2019 03 17v#j-0`v!rgHQf/v9e$U]51QTQ1?aCJo-/)('J*Xj:/]%38=+Nsp%H36
     C0AMHE2  C2019 03 17.30288 12 53 33.38 -12 54 46.8    ~3H7m 19.3 GVNEOCPG96
     C0AMHE2 KC2019 03 17iR!vY0Y;k)y#explanations92WsIj+wcWjIG6QS^TV=62/s13G%H36

Station data:
(G96) Mt. Lemmon Survey  (N32.442754 W110.788720)  US/Arizona.  Observers B.
   M. Africano, E. J. Christensen, G. A. Farneth, D. C. Fuls, A. R. Gibbs, A.
   D. Grauer, H. Groeller, J. A. Johnson, R. A. Kowalski, S. M. Larson, G. J.
   Leonard, R. L. Seaman, F. C. Shelly. 1.5-m reflector + 10K CCD.
(H21) Astronomical Research Observatory, Westfield  (N39.483057 W87.968270)
   US/Illinois. 0.76-m f/3.0 astrograph + CCD.
(H36) Sandlot Observatory, Scranton  (N38.797693 W95.706400)  US/Kansas.
   Observer G. Hug. 0.56-m reflector + CCD.
(I52) Steward Observatory, Mt. Lemmon Station  (N32.442547 W110.788920)
   US/Arizona.  Observers B. M. Africano, E. J. Christensen, G. A. Farneth,
   D. C. Fuls, A. R. Gibbs, A. D. Grauer, H. Groeller, J. A. Johnson, R. A.
   Kowalski, S. M. Larson, G. J. Leonard, R. L. Seaman, F. C. Shelly. 1.0-m
   reflector + CCD.
(L01) Višnjan Observatory, Tičan  (N45.290900 E13.749300)  Croatia.
   Observers K. Korlević, E. Pettarin. Measurer E. Pettarin. 1.0-m f/2.9
   reflector + CCD.

Orbital elements:  C0AMHE2
   Perihelion 2019 Jul 9.164636 +/- 1.07 TT =  3:57:04 (JD 2458673.664636)
Epoch 2019 Mar 17.0 TT = JDT 2458559.5   Earth MOID: 0.1210   AutoNEOCP
M 281.53514258 +/- 3.5              (J2000 ecliptic)
n   0.68729564 +/- 0.0249           Peri.  121.42288 +/- 2.0
a   1.27166773 +/- 0.0307           Node   183.97354 +/- 0.049
e   0.4095987 +/- 0.00734           Incl.   46.52125 +/- 1.2
P   1.43/523.78d           H 20.0   G  0.15   U 10.3  
q 0.75079428 +/- 0.00927    Q 1.79254119 +/- 0.0542
From 26 observations 2019 Mar. 15-17 (47.0 hr); mean residual 0".34
Residuals in arcseconds: 
190315 G96  .06-  .08-    190316 H21  .06-  .04-    190317 G96  .27-  .10-    
190315 G96  .01-  .32+    190316 L01  .10-  .13-    190317 H36  .70-  .22+    
190315 G96  .05+  .36+    190316 L01  .35-  .22+    190317 G96  .26-  .22+    
190315 G96  .40+  .07-    190316 L01  .35-  .07+    190317 H36  .11-  .14-    
190315 G96  .43+  .77-    190316 L01  .04-  .17+    190317 G96  .01+  .31-    
190315 G96  .06-  .03+    190316 L01  .06+  .36+    190317 H36  .10-  .62-    
190315 G96  .17-  .40+    190317 I52  .64+  .38+    190317 G96  .01+  .09+    
190316 H21  .21-  .18-    190317 I52  .44-  .09-    190317 H36  .97+  .32+    
190316 H21  .18-  .23-    190317 I52  .87+  .24-    

Ephemerides (geocentric):
Date (UTC) HH   RA              Dec         delta   r     elong  mag " sig PA
---- -- -- --  -------------   -----------  ------ ------ -----  --- ---- ---
2019 03 17 15  12 53 06.444   -12 26 20.18  .39649 1.3717 158.5 19.6 .413 134
2019 03 17 16  12 53 02.979   -12 22 39.15  .39606 1.3714 158.6 19.6 .419 131
2019 03 17 17  12 52 59.505   -12 18 57.61  .39564 1.3712 158.7 19.6 .425 128
2019 03 17 18  12 52 56.022   -12 15 15.55  .39521 1.3710 158.8 19.6 .432 125
2019 03 17 19  12 52 52.530   -12 11 32.97  .39479 1.3707 158.9 19.6 .440 123
2019 03 17 20  12 52 49.029   -12 07 49.87  .39436 1.3705 159.0 19.6 .449 120
2019 03 17 21  12 52 45.519   -12 04 06.25  .39394 1.3702 159.1 19.5 .459 117
2019 03 17 22  12 52 42.001   -12 00 22.11  .39352 1.3700 159.2 19.5 .470 115
2019 03 17 23  12 52 38.473   -11 56 37.45  .39309 1.3698 159.3 19.5 .482 112
2019 03 18 00  12 52 34.936   -11 52 52.27  .39267 1.3695 159.3 19.5 .495 110
2019 03 18 01  12 52 31.390   -11 49 06.57  .39225 1.3693 159.4 19.5 .509 107
2019 03 18 02  12 52 27.835   -11 45 20.34  .39183 1.3691 159.5 19.5 .524 105
2019 03 18 03  12 52 24.270   -11 41 33.59  .39141 1.3688 159.6 19.5 .540 103
2019 03 18 04  12 52 20.697   -11 37 46.32  .39100 1.3686 159.7 19.5 .556 100
2019 03 18 05  12 52 17.115   -11 33 58.52  .39058 1.3683 159.8 19.5 .574  98
2019 03 18 06  12 52 13.524   -11 30 10.20  .39016 1.3681 159.9 19.5 .593  96
2019 03 18 07  12 52 09.923   -11 26 21.35  .38974 1.3679 160.0 19.5 .613  94
2019 03 18 08  12 52 06.314   -11 22 31.97  .38933 1.3676 160.1 19.5 .634  92
2019 03 18 09  12 52 02.695   -11 18 42.07  .38891 1.3674 160.2 19.5 .656  90
2019 03 18 10  12 51 59.068   -11 14 51.64  .38850 1.3672 160.3 19.5 .679  88
2019 03 18 11  12 51 55.431   -11 11 00.69  .38809 1.3669 160.3 19.5 .703  87
2019 03 18 12  12 51 51.785   -11 07 09.20  .38768 1.3667 160.4 19.5 .727  85
2019 03 18 13  12 51 48.130   -11 03 17.18  .38726 1.3664 160.5 19.5 .753  83
2019 03 18 14  12 51 44.466   -10 59 24.64  .38685 1.3662 160.6 19.5 .780  82
2019 03 18 15  12 51 40.793   -10 55 31.56  .38644 1.3660 160.7 19.5 .807  80
2019 03 18 16  12 51 37.110   -10 51 37.96  .38603 1.3657 160.8 19.5 .836  79
2019 03 18 17  12 51 33.419   -10 47 43.82  .38562 1.3655 160.9 19.4 .865  77
2019 03 18 18  12 51 29.718   -10 43 49.15  .38522 1.3652 161.0 19.4 .896  76
2019 03 18 19  12 51 26.008   -10 39 53.95  .38481 1.3650 161.1 19.4 .927  75
2019 03 18 20  12 51 22.289   -10 35 58.21  .38440 1.3648 161.2 19.4 .959  73
2019 03 18 21  12 51 18.561   -10 32 01.94  .38400 1.3645 161.3 19.4 0.99  72
2019 03 18 22  12 51 14.824   -10 28 05.13  .38359 1.3643 161.3 19.4 1.03  71
2019 03 18 23  12 51 11.077   -10 24 07.80  .38319 1.3641 161.4 19.4 1.06  70
2019 03 19 00  12 51 07.321   -10 20 09.92  .38278 1.3638 161.5 19.4 1.10  69
2019 03 19 01  12 51 03.556   -10 16 11.51  .38238 1.3636 161.6 19.4 1.13  68
2019 03 19 02  12 50 59.782   -10 12 12.56  .38198 1.3633 161.7 19.4 1.17  67
2019 03 19 03  12 50 55.998   -10 08 13.08  .38158 1.3631 161.8 19.4 1.21  66
2019 03 19 04  12 50 52.206   -10 04 13.06  .38118 1.3629 161.9 19.4 1.25  65
2019 03 19 05  12 50 48.404   -10 00 12.50  .38078 1.3626 162.0 19.4 1.29  64
2019 03 19 06  12 50 44.592   -09 56 11.41  .38038 1.3624 162.1 19.4 1.33  63
2019 03 19 07  12 50 40.772   -09 52 09.77  .37998 1.3621 162.2 19.4 1.38  62
2019 03 19 08  12 50 36.942   -09 48 07.60  .37958 1.3619 162.3 19.4 1.42  61
2019 03 19 09  12 50 33.103   -09 44 04.88  .37919 1.3617 162.4 19.4 1.46  60
2019 03 19 10  12 50 29.255   -09 40 01.63  .37879 1.3614 162.5 19.4 1.51  59
2019 03 19 11  12 50 25.397   -09 35 57.83  .37840 1.3612 162.5 19.4 1.56  59
2019 03 19 12  12 50 21.530   -09 31 53.50  .37800 1.3609 162.6 19.4 1.60  58
2019 03 19 13  12 50 17.654   -09 27 48.62  .37761 1.3607 162.7 19.3 1.65  57
2019 03 19 14  12 50 13.769   -09 23 43.20  .37721 1.3605 162.8 19.3 1.70  56